Probability
65 45 32 35 74 48 0 0 10 10 10 13 16 16 23 35 42 84 94 87 81 97 100 100 100 100 100 100 100 100 100 100 100 100 100 100 100 100 100 100 100 100 100 94 90 97 97 100 100
39 23 35 61 68 3 0 3 6 10 6 13 19 29 29 52 74 74 90 87 97 97 100 100 100 100 100 100 100 100 100 100 100 100 100 100 100 100 100 100 100 100 100 90 87 90 97 97 100
19 16 48 52 32 6 3 6 10 10 10 6 16 42 48 71 68 77 87 90 97 100 100 100 100 100 100 100 100 100 100 100 100 100 100 100 100 100 100 100 100 97 97 87 87 90 94 97 97
19 42 55 45 6 0 10 6 10 3 13 10 13 42 68 87 87 87 90 97 94 94 100 100 100 100 100 100 100 100 100 100 100 100 100 100 100 100 97 97 97 97 97 97 90 90 94 94 94
16 32 19 13 3 0 6 10 6 6 23 19 23 45 84 90 87 90 94 87 87 84 94 100 100 100 100 100 100 100 100 100 100 100 100 100 100 100 97 97 97 97 97 97 94 90 90 94 94
3 10 10 0 0 0 6 13 10 13 23 29 26 45 94 90 90 90 84 84 74 77 94 100 100 100 100 100 100 100 100 100 100 100 100 100 100 100 100 100 94 90 94 97 90 90 100 90 94
3 6 3 0 0 3 6 13 19 19 32 45 39 48 94 100 97 90 94 87 71 74 100 100 100 100 100 100 100 100 100 100 100 100 100 100 100 100 100 100 97 97 94 90 97 94 97 100 100
3 3 0 0 0 0 6 10 16 23 39 48 61 61 87 100 100 100 97 94 94 100 100 100 100 100 100 100 100 100 100 97 97 97 100 100 100 100 100 100 100 100 97 97 90 94 94 97 100
0 0 0 0 0 0 6 10 13 29 48 68 84 81 97 100 100 100 100 100 100 100 100 100 100 100 100 100 100 100 100 100 100 100 100 100 100 97 100 94 94 94 94 97 97 94 97 94 97
0 0 0 0 0 0 6 10 13 26 39 71 84 90 97 100 97 97 97 94 100 97 97 100 100 100 100 97 100 100 100 100 100 100 100 100 97 97 97 97 94 97 97 94 90 90 94 94 94
0 0 0 0 0 0 6 10 16 23 45 74 84 90 94 97 94 97 97 94 97 97 97 94 97 97 97 97 94 100 94 90 94 97 97 97 97 94 94 94 90 90 90 94 94 90 90 90 90
0 0 0 0 3 3 3 13 23 35 65 84 90 94 94 87 90 94 94 87 87 90 90 87 90 90 90 84 84 84 84 84 87 87 87 87 90 97 84 87 84 84 94 97 94 94 90 87 84
0 0 3 3 3 10 10 13 39 68 87 87 87 81 87 87 94 94 90 90 87 90 84 84 87 87 87 84 81 81 84 77 84 87 84 87 87 81 81 87 84 81 81 81 81 84 87 90 84
0 0 3 6 13 19 32 48 61 81 87 84 87 84 87 90 90 90 87 94 87 81 74 71 81 77 77 77 74 74 68 84 77 77 77 77 74 77 77 81 74 65 58 61 71 74 81 77 77
0 0 0 13 26 35 42 65 81 81 84 81 74 74 74 81 90 94 90 87 77 77 68 68 71 71 77 71 68 55 55 52 61 61 71 58 52 68 58 65 61 58 52 55 68 55 58 61 52
0 0 3 19 35 52 52 74 81 84 74 74 77 77 77 81 87 87 87 81 77 71 68 61 48 68 71 71 71 42 42 45 39 39 35 52 48 45 52 42 39 39 45 48 45 52 48 52 45
0 0 0 19 48 55 58 74 87 77 71 71 65 65 68 71 71 77 74 74 68 71 68 65 61 55 61 61 58 39 42 35 26 16 19 32 35 32 39 39 35 35 35 29 23 32 42 45 42
0 0 6 29 48 58 55 71 81 77 68 58 61 65 55 52 58 55 52 55 58 61 65 65 68 58 58 42 45 29 26 19 19 16 19 19 16 23 26 29 26 23 26 29 23 32 32 32 39
0 6 16 32 45 58 61 74 81 74 61 65 71 55 45 39 35 39 26 29 45 55 61 52 55 52 52 35 19 19 13 13 10 16 13 10 10 10 13 10 6 19 19 13 13 19 19 29 23
0 10 16 39 45 42 61 65 71 65 58 55 52 42 39 32 29 29 35 32 26 29 39 42 48 39 35 42 35 32 26 16 13 10 13 10 10 6 6 6 13 6 13 13 10 19 16 6 13
6 10 13 39 52 45 52 58 61 52 48 39 35 39 32 32 26 32 32 26 23 26 29 23 32 35 32 29 23 19 23 13 10 13 13 10 10 10 10 6 6 6 10 10 10 6 6 6 6
3 10 13 35 35 35 32 29 39 35 32 29 23 23 16 16 16 16 26 26 26 26 23 26 35 35 32 32 26 19 16 3 6 6 10 10 10 10 6 6 6 10 10 6 6 6 6 6 3
19 6 10 23 23 19 16 10 23 32 32 23 16 16 13 16 13 19 19 19 16 23 26 32 35 32 35 32 29 26 13 3 3 3 3 6 6 6 6 6 6 6 10 6 6 6 6 3 0
10 13 10 6 3 0 3 0 10 19 26 19 13 16 13 10 13 19 19 19 26 26 26 26 32 35 29 26 23 23 19 16 10 13 6 3 3 3 3 3 3 6 6 6 6 6 6 6 6
6 3 3 0 0 0 6 3 3 13 10 16 13 13 10 13 16 16 23 19 23 23 29 19 23 26 29 16 16 16 23 23 19 16 10 6 0 0 0 0 6 6 6 3 6 6 6 6 6
6 0 0 0 0 0 6 3 10 10 6 10 10 13 10 16 19 19 10 13 13 16 19 19 23 26 19 13 13 13 10 6 3 3 3 0 6 0 3 0 3 6 3 3 3 3 6 3 3
0 0 0 0 0 0 0 3 10 10 10 10 10 10 3 3 6 10 10 3 10 6 10 16 16 16 10 6 6 6 6 3 3 3 0 0 0 0 0 0 0 0 0 0 0 3 3 3 0
3 0 0 0 0 0 0 0 3 16 10 6 6 6 6 10 10 3 3 6 3 3 3 6 6 6 3 0 0 0 0 0 0 0 0 0 0 0 0 0 0 0 0 0 0 0 0 0 0
0 0 0 0 0 0 0 0 3 6 10 6 3 6 10 10 3 3 0 3 6 3 3 0 0 0 0 0 0 0 0 0 0 0 0 0 0 0 0 0 0 0 0 0 0 0 0 0 0
0 0 0 0 0 0 0 0 3 3 6 6 0 3 3 0 0 0 0 0 0 0 0 0 0 0 0 0 0 0 0 0 0 0 0 0 0 0 0 0 0 0 0 0 0 0 0 0 0
Height
5935 5934 5934 5934 5935 5935 5934 5933 5932 5931 5930 5929 5928 5927 5926 5925 5926 5927 5924 5921 5921 5920 5919 5918 5918 5917 5917 5916 5915 5914 5913 5912 5911 5910 5910 5909 5909 5908 5908 5907 5907 5907 5906 5906 5906 5906 5906 5906 5905
5934 5934 5934 5934 5934 5935 5933 5932 5931 5930 5929 5928 5927 5926 5925 5924 5923 5923 5921 5920 5919 5918 5918 5917 5916 5916 5915 5914 5914 5913 5912 5911 5910 5909 5909 5908 5908 5907 5907 5907 5906 5906 5906 5905 5905 5905 5905 5905 5905
5933 5932 5933 5932 5932 5933 5931 5930 5930 5929 5928 5927 5926 5925 5924 5923 5922 5921 5920 5919 5918 5917 5916 5915 5915 5914 5913 5913 5912 5911 5911 5910 5909 5908 5907 5907 5906 5906 5906 5905 5905 5905 5905 5904 5904 5904 5904 5904 5904
5931 5931 5931 5931 5930 5929 5929 5928 5928 5927 5926 5926 5925 5924 5923 5922 5920 5920 5918 5917 5916 5915 5914 5914 5913 5913 5912 5911 5910 5909 5909 5908 5907 5906 5906 5905 5905 5904 5904 5904 5903 5903 5903 5903 5903 5902 5902 5902 5902
5929 5929 5929 5928 5927 5926 5926 5926 5925 5925 5924 5924 5923 5922 5921 5920 5919 5918 5917 5916 5915 5914 5913 5912 5911 5911 5910 5909 5908 5907 5906 5906 5905 5904 5903 5903 5902 5902 5902 5901 5901 5901 5901 5901 5901 5900 5900 5900 5901
5926 5926 5926 5926 5924 5922 5922 5923 5923 5922 5922 5922 5922 5921 5919 5918 5917 5916 5915 5914 5913 5912 5911 5910 5909 5908 5907 5906 5905 5904 5903 5903 5902 5901 5900 5900 5899 5899 5899 5899 5899 5898 5898 5898 5898 5898 5898 5898 5898
5923 5922 5921 5921 5920 5919 5918 5919 5919 5919 5919 5919 5919 5919 5917 5916 5915 5914 5913 5912 5911 5910 5909 5908 5906 5905 5904 5903 5902 5901 5901 5900 5899 5898 5897 5897 5896 5896 5896 5896 5895 5895 5895 5895 5895 5895 5895 5895 5896
5916 5917 5916 5916 5915 5914 5914 5915 5916 5916 5916 5917 5917 5916 5915 5914 5913 5912 5911 5910 5909 5908 5906 5905 5904 5902 5901 5900 5899 5898 5897 5896 5895 5894 5893 5893 5893 5892 5892 5892 5892 5891 5891 5891 5891 5891 5892 5892 5892
5910 5912 5911 5910 5910 5909 5909 5910 5912 5913 5913 5913 5913 5913 5912 5911 5910 5909 5908 5907 5906 5905 5903 5902 5901 5899 5898 5896 5895 5894 5893 5892 5891 5890 5889 5888 5888 5887 5887 5887 5887 5887 5887 5888 5888 5888 5888 5888 5889
5904 5904 5904 5904 5904 5904 5904 5905 5907 5909 5909 5909 5910 5909 5909 5908 5907 5906 5905 5904 5903 5901 5900 5898 5897 5895 5894 5892 5891 5890 5888 5887 5886 5885 5884 5884 5883 5882 5882 5882 5882 5882 5883 5883 5883 5884 5884 5884 5884
5896 5897 5897 5897 5897 5898 5899 5901 5902 5904 5905 5905 5905 5906 5905 5905 5904 5903 5902 5900 5899 5897 5896 5894 5893 5891 5890 5888 5886 5884 5883 5882 5881 5880 5879 5878 5878 5877 5877 5877 5877 5877 5877 5877 5877 5878 5879 5879 5879
5889 5889 5889 5890 5891 5893 5894 5896 5898 5899 5900 5901 5901 5901 5901 5901 5900 5898 5897 5896 5895 5893 5891 5890 5888 5886 5885 5883 5881 5880 5878 5877 5876 5875 5874 5873 5873 5872 5871 5872 5872 5871 5871 5872 5872 5872 5873 5873 5873
5882 5883 5883 5884 5886 5887 5889 5891 5893 5894 5896 5897 5897 5897 5897 5897 5896 5894 5893 5892 5890 5887 5886 5884 5883 5882 5880 5878 5876 5874 5873 5872 5870 5869 5868 5868 5867 5866 5866 5866 5866 5866 5866 5866 5866 5866 5866 5867 5867
5877 5878 5878 5879 5881 5882 5884 5887 5889 5890 5892 5893 5893 5893 5893 5892 5891 5890 5888 5887 5885 5883 5881 5879 5877 5876 5875 5873 5871 5870 5868 5866 5865 5864 5864 5863 5862 5861 5860 5860 5860 5859 5860 5860 5860 5860 5860 5861 5861
5874 5875 5875 5875 5876 5878 5881 5883 5885 5886 5887 5888 5888 5889 5888 5887 5886 5885 5884 5882 5879 5877 5876 5874 5873 5871 5870 5868 5867 5865 5863 5861 5860 5859 5858 5858 5857 5856 5855 5854 5853 5853 5853 5854 5854 5854 5854 5855 5855
5872 5873 5874 5873 5873 5875 5879 5880 5882 5882 5883 5884 5884 5884 5883 5883 5881 5880 5879 5877 5875 5873 5871 5869 5868 5867 5865 5864 5862 5859 5858 5856 5855 5854 5853 5852 5851 5850 5849 5849 5848 5847 5847 5847 5848 5848 5848 5848 5849
5872 5873 5873 5872 5872 5873 5876 5877 5878 5879 5879 5880 5879 5879 5878 5877 5876 5875 5874 5872 5870 5869 5867 5865 5864 5862 5861 5859 5857 5855 5853 5852 5850 5849 5847 5846 5845 5844 5843 5843 5842 5841 5841 5841 5841 5841 5841 5841 5842
5873 5872 5871 5871 5871 5872 5873 5874 5875 5875 5876 5875 5875 5874 5873 5873 5872 5870 5869 5867 5866 5864 5863 5861 5860 5858 5857 5854 5852 5850 5848 5846 5845 5843 5842 5840 5839 5838 5837 5836 5835 5834 5834 5834 5833 5834 5834 5834 5834
5871 5871 5871 5870 5870 5871 5871 5872 5872 5872 5872 5871 5870 5870 5869 5868 5867 5866 5864 5863 5861 5860 5859 5857 5856 5854 5852 5850 5847 5845 5843 5841 5839 5837 5835 5834 5832 5831 5830 5828 5827 5827 5826 5826 5825 5825 5825 5825 5825
5870 5870 5870 5870 5869 5869 5869 5869 5869 5869 5868 5868 5866 5865 5864 5864 5862 5861 5860 5858 5857 5855 5854 5852 5850 5849 5847 5845 5842 5840 5837 5835 5833 5831 5829 5827 5825 5823 5822 5821 5819 5818 5817 5817 5817 5816 5816 5817 5817
5869 5870 5870 5869 5868 5868 5868 5867 5867 5866 5865 5864 5862 5861 5860 5860 5859 5858 5857 5855 5853 5852 5850 5848 5846 5845 5843 5840 5837 5835 5832 5829 5826 5824 5822 5820 5818 5816 5814 5812 5811 5809 5808 5808 5807 5807 5807 5807 5807
5869 5869 5868 5868 5868 5867 5867 5866 5865 5864 5863 5861 5859 5858 5858 5857 5856 5855 5854 5852 5850 5849 5847 5845 5843 5841 5838 5835 5832 5829 5826 5823 5820 5817 5814 5812 5809 5807 5805 5803 5801 5800 5799 5798 5797 5797 5797 5797 5797
5868 5868 5867 5867 5866 5866 5865 5865 5864 5861 5860 5859 5857 5856 5856 5855 5854 5853 5852 5850 5848 5846 5844 5842 5839 5837 5834 5830 5827 5824 5820 5816 5813 5810 5807 5804 5801 5798 5796 5794 5792 5790 5789 5788 5787 5787 5787 5787 5787
5867 5867 5866 5866 5865 5866 5864 5864 5862 5860 5858 5857 5856 5855 5854 5853 5852 5851 5850 5848 5846 5844 5841 5838 5835 5832 5829 5825 5822 5818 5814 5810 5806 5803 5799 5796 5792 5790 5787 5784 5782 5780 5779 5778 5777 5776 5776 5776 5776
5866 5867 5867 5866 5866 5865 5863 5862 5862 5859 5857 5856 5855 5854 5853 5852 5851 5850 5848 5846 5844 5841 5838 5835 5831 5828 5824 5820 5816 5812 5807 5803 5799 5795 5791 5787 5784 5780 5777 5774 5772 5770 5768 5767 5766 5765 5765 5765 5766
5865 5865 5866 5866 5866 5864 5861 5861 5860 5858 5857 5855 5854 5854 5852 5851 5850 5848 5846 5844 5841 5838 5834 5831 5827 5823 5819 5814 5810 5805 5801 5797 5792 5788 5784 5780 5775 5771 5768 5764 5762 5759 5758 5756 5755 5754 5754 5754 5755
5863 5863 5863 5863 5863 5863 5861 5860 5859 5857 5856 5855 5854 5852 5851 5849 5848 5846 5843 5840 5837 5834 5831 5827 5823 5818 5813 5809 5804 5800 5795 5790 5786 5781 5776 5771 5767 5763 5759 5755 5752 5749 5747 5745 5744 5743 5742 5742 5743
5862 5861 5861 5862 5862 5863 5861 5859 5858 5856 5855 5854 5852 5851 5849 5848 5846 5843 5840 5838 5834 5831 5827 5823 5818 5813 5808 5804 5799 5794 5789 5784 5778 5773 5768 5763 5758 5754 5750 5746 5742 5739 5736 5734 5732 5731 5730 5730 5730
5861 5860 5860 5860 5860 5862 5862 5861 5857 5855 5854 5852 5851 5849 5848 5846 5843 5841 5838 5834 5831 5827 5823 5818 5814 5809 5804 5798 5793 5788 5782 5776 5771 5765 5760 5755 5750 5745 5740 5736 5732 5728 5725 5722 5720 5718 5717 5717 5718
5858 5858 5859 5859 5858 5858 5859 5860 5854 5853 5852 5850 5849 5847 5845 5843 5840 5837 5834 5831 5827 5823 5819 5814 5809 5804 5798 5793 5787 5781 5775 5769 5763 5757 5752 5746 5741 5735 5731 5726 5721 5717 5714 5710 5708 5706 5705 5705 5705
Wind_Speed
6 5 5 4 5 5 4 5 4 4 3 4 4 4 4 5 5 5 5 6 6 6 6 6 6 7 7 7 7 8 7 6 5 4 3 3 2 2 2 1 1 1 0 0 0 0 0 1 1
7 7 6 5 5 4 7 7 6 6 5 5 4 4 4 5 5 5 5 6 7 7 7 7 7 8 8 8 8 8 7 7 6 6 5 5 4 4 4 4 3 3 3 3 2 2 2 2 2
8 8 8 8 7 8 10 9 8 7 6 7 5 5 5 5 5 5 5 6 7 7 8 8 8 9 9 9 9 9 8 8 8 8 7 7 7 6 6 6 6 6 6 6 5 5 4 4 4
11 11 11 10 11 12 11 10 10 9 8 8 8 7 7 7 6 6 6 7 7 8 8 9 9 10 10 10 10 10 10 10 10 10 9 9 9 8 8 8 8 8 9 9 8 8 7 7 6
13 13 13 13 14 15 13 13 12 11 11 11 10 9 9 8 8 8 8 9 9 9 9 10 11 12 12 12 12 12 12 12 12 11 11 11 10 10 10 10 10 11 11 11 10 10 10 9 8
15 15 15 15 18 18 17 15 14 14 14 13 12 11 10 9 9 10 10 11 11 11 11 12 13 14 14 14 14 15 15 15 14 14 14 13 13 12 12 12 12 12 12 13 12 12 12 12 11
18 18 19 19 20 21 20 17 17 16 16 15 14 14 13 12 12 12 12 13 13 13 14 14 15 15 15 16 16 17 17 17 16 16 16 15 15 15 15 15 15 14 14 14 14 14 14 14 13
21 22 21 22 22 24 23 21 20 19 18 17 17 16 15 15 15 15 15 16 17 17 17 17 17 17 17 18 18 18 19 18 18 18 18 17 17 18 17 17 17 16 16 16 16 15 15 15 15
24 24 24 24 25 26 25 23 22 20 20 20 19 18 18 17 17 18 19 19 19 20 20 20 21 20 20 21 21 21 21 21 21 21 21 20 20 20 20 19 19 18 18 18 18 17 17 16 16
26 26 26 27 27 27 27 26 24 22 22 22 20 20 19 19 20 21 21 21 22 23 23 22 23 23 23 24 24 24 24 24 24 24 24 22 23 23 22 22 22 22 20 20 20 20 20 20 19
26 27 28 28 28 28 27 27 25 24 25 24 22 21 20 20 21 21 22 23 24 24 24 23 24 24 25 25 26 25 25 26 26 25 24 25 24 23 24 24 24 23 23 22 21 21 22 23 22
25 26 27 27 28 27 27 26 26 26 26 25 24 22 22 22 21 22 23 25 25 25 25 25 25 25 26 26 26 26 26 26 25 25 24 25 25 25 25 26 25 25 24 23 23 22 23 23 23
21 22 24 25 26 26 25 25 26 26 25 25 24 23 23 23 23 24 25 26 26 26 26 26 27 26 26 25 24 24 24 24 24 24 24 24 26 26 25 24 25 25 26 26 26 25 24 24 23
17 18 19 20 22 23 23 23 23 24 24 24 23 24 24 24 24 25 25 25 27 28 27 27 25 24 24 23 22 22 23 23 24 23 23 23 25 25 25 25 26 26 26 27 27 27 25 24 24
14 14 15 16 18 19 19 20 19 20 21 22 22 22 23 23 23 24 24 25 26 26 26 26 24 22 21 22 23 23 23 23 23 24 24 24 25 25 24 25 25 26 26 25 25 25 25 25 25
10 10 10 12 13 14 15 16 17 17 18 19 20 20 21 21 22 23 23 23 22 23 23 22 21 21 20 20 21 21 21 21 23 24 23 24 25 24 24 25 25 25 26 26 24 24 25 27 27
9 7 8 10 10 10 11 13 14 15 15 17 18 19 20 20 21 22 22 22 22 21 21 20 20 19 19 19 19 20 20 21 22 22 23 24 24 24 25 26 26 26 26 26 26 26 27 27 29
6 6 6 8 8 8 9 11 13 14 15 17 19 19 20 21 20 21 20 21 21 20 20 19 18 18 18 19 20 21 22 22 22 23 23 24 24 25 26 27 27 27 28 28 29 29 29 30 30
5 4 5 7 7 7 8 10 12 14 15 16 17 18 19 19 18 18 18 18 18 18 17 17 17 17 19 20 21 22 23 23 24 24 24 25 25 26 27 27 28 29 29 30 31 31 31 31 32
5 4 5 7 7 8 9 11 12 13 13 15 16 16 17 17 16 16 16 16 16 17 17 16 16 18 20 21 22 23 24 24 24 24 25 25 26 27 28 29 29 30 31 31 32 33 33 33 33
4 5 6 8 8 8 9 9 10 11 13 14 13 13 13 13 13 13 13 13 14 15 16 16 17 19 21 21 22 23 24 25 26 26 26 27 27 27 28 29 30 31 31 32 33 34 34 35 35
5 5 7 8 8 8 9 10 10 10 10 10 10 9 10 11 11 11 13 13 14 15 16 17 19 20 21 22 24 25 26 27 28 28 28 28 29 29 30 30 31 32 33 33 34 35 35 36 36
6 6 6 7 8 9 8 8 9 9 9 8 8 9 9 10 11 12 13 13 14 15 17 18 20 21 22 24 25 26 27 28 29 29 29 30 30 31 31 32 32 33 34 34 34 35 36 36 36
6 6 6 6 6 7 7 7 9 8 8 9 9 9 9 10 10 11 12 13 15 17 19 20 22 23 24 25 26 27 28 29 29 30 30 31 31 32 32 33 33 34 35 35 36 36 36 37 37
6 6 6 6 6 7 7 7 8 7 7 8 8 8 9 9 11 12 13 15 16 18 20 22 23 24 25 27 27 28 29 29 30 31 31 32 33 33 33 34 34 34 35 35 36 36 37 37 37
6 5 5 5 6 7 7 7 8 7 7 7 7 8 9 10 12 13 14 16 18 19 21 23 24 25 26 27 28 29 29 30 30 31 31 32 33 34 34 34 34 34 34 35 36 36 37 37 38
7 6 6 5 5 6 7 7 7 7 7 7 8 9 10 12 13 15 16 17 19 21 22 23 25 26 27 28 28 28 29 30 31 31 32 32 32 33 33 33 34 35 35 36 36 37 37 37 38
7 6 5 3 4 4 7 8 8 8 8 9 9 10 12 13 15 16 17 18 20 21 23 24 25 26 27 27 28 29 29 30 30 31 32 32 32 33 33 34 34 35 36 37 37 37 38 38 38
6 6 4 4 4 2 6 8 8 8 9 9 10 12 13 14 15 16 17 19 20 21 23 24 25 26 27 27 28 29 30 31 31 32 32 33 33 33 33 34 35 36 36 37 37 38 38 38 38
6 6 5 4 5 4 4 9 8 9 10 10 11 13 14 15 16 17 18 19 20 21 23 24 25 26 27 28 29 30 31 32 32 33 33 34 34 34 34 35 35 36 36 36 36 37 37 38 38
Wind_Direction
349 342 333 329 327 339 319 312 312 322 331 334 341 1 20 25 29 20 6 1 358 352 346 340 337 330 323 317 313 310 307 301 299 295 289 280 268 260 255 252 257 256 249 295 345 21 56 115 133
326 319 310 307 307 293 290 295 292 297 304 308 317 338 356 6 7 4 357 358 352 343 336 331 327 321 313 308 306 305 302 296 291 288 283 277 272 266 262 261 264 264 258 251 250 246 242 228 212
309 299 293 294 285 267 281 288 288 288 287 293 301 314 326 335 340 346 344 347 346 340 334 327 322 318 311 306 305 302 296 291 286 285 282 277 274 270 266 265 267 267 264 261 257 253 247 236 228
295 291 283 278 272 274 279 281 281 279 284 285 290 299 311 314 323 334 337 342 341 337 330 322 318 314 308 304 302 299 294 290 286 283 280 276 275 272 268 268 268 268 265 264 262 259 255 248 240
286 280 276 271 266 269 272 273 272 273 278 278 280 292 305 311 311 314 322 329 331 330 325 317 313 310 305 301 300 295 291 289 285 280 277 274 272 270 268 269 270 268 265 265 264 261 258 253 247
277 274 267 259 263 265 266 267 268 270 272 273 277 285 293 301 305 309 312 318 321 322 319 313 311 308 304 299 297 295 291 287 284 278 275 271 269 269 268 269 271 271 268 263 262 261 259 255 251
273 269 263 260 259 261 262 263 261 264 265 269 275 279 286 288 295 300 304 308 311 312 311 309 306 304 300 299 295 291 290 287 283 278 274 271 270 271 271 271 272 270 267 264 262 259 259 257 253
270 266 261 258 256 257 260 259 259 259 260 264 267 274 282 288 293 296 299 303 305 306 305 302 299 296 295 295 291 288 287 283 281 280 276 274 274 273 272 271 272 271 267 265 263 260 260 260 257
269 263 259 255 252 254 257 255 256 258 257 260 264 270 278 286 291 295 299 301 301 302 302 299 297 294 291 289 288 284 280 277 277 276 275 273 273 273 271 269 271 271 269 267 264 262 260 261 257
268 262 258 255 253 252 253 252 252 254 256 259 263 269 276 283 289 293 297 299 299 299 299 296 293 292 289 286 285 283 279 275 276 276 273 274 272 272 272 270 269 268 268 268 266 263 260 259 260
267 262 258 255 252 251 251 251 250 249 252 256 262 268 274 280 286 292 296 297 297 296 295 292 291 289 288 286 284 282 280 279 277 276 276 276 276 276 274 272 270 269 269 270 270 268 265 263 261
269 264 259 256 254 251 249 249 250 248 251 257 262 267 271 277 284 290 293 295 296 294 293 291 288 285 284 284 283 283 282 280 280 280 278 277 277 279 280 276 276 274 272 272 273 269 266 265 262
275 269 263 258 255 252 250 249 248 250 253 258 263 267 270 275 279 285 289 292 293 292 290 290 287 284 284 284 284 288 286 285 284 283 284 281 279 280 280 279 276 277 274 273 271 269 266 266 263
283 276 269 262 256 253 251 250 250 250 253 259 263 267 271 274 279 284 288 290 291 290 290 293 290 290 289 289 289 290 291 289 285 282 283 284 280 280 281 279 276 277 278 274 273 270 266 266 265
297 290 280 267 258 254 252 251 252 254 257 261 264 267 271 277 282 285 289 292 293 291 293 292 292 293 294 291 291 288 293 291 286 282 283 285 283 282 284 285 278 276 278 275 272 269 266 267 266
316 306 289 274 262 255 251 252 254 257 260 263 265 268 274 279 282 284 287 290 292 293 294 291 293 294 297 294 295 292 290 291 289 287 286 286 285 284 284 283 281 279 276 273 271 272 270 267 265
328 310 283 276 266 253 250 252 257 260 262 265 268 271 276 280 283 285 287 287 291 294 294 295 297 297 298 299 299 299 297 295 293 291 288 286 283 282 282 280 279 279 276 272 270 271 270 268 265
293 296 285 281 276 263 258 259 261 262 266 269 271 274 278 283 286 287 286 289 291 294 295 294 298 301 303 303 302 301 300 298 295 293 290 288 284 282 281 279 277 276 274 272 271 270 269 267 265
307 300 295 296 292 276 268 267 265 266 268 273 274 274 280 285 285 289 289 293 295 298 298 299 301 304 306 305 305 304 303 300 297 295 292 290 287 284 281 280 277 275 274 272 270 269 268 266 264
309 307 302 300 301 289 281 275 272 275 280 285 281 278 281 286 289 297 298 299 302 305 306 306 308 309 308 307 307 306 305 304 301 298 296 294 290 287 284 280 278 276 274 272 270 268 266 265 264
296 294 293 295 294 296 296 289 282 283 287 288 288 281 284 290 294 301 308 309 311 311 314 313 315 314 312 311 310 308 308 306 304 301 298 295 292 289 286 284 280 278 275 273 270 268 266 265 264
291 294 295 299 303 305 304 300 294 297 299 299 300 296 292 299 305 310 315 318 318 318 317 315 314 313 313 312 311 310 309 307 305 302 300 297 295 292 289 286 283 280 278 275 272 268 266 264 263
289 301 303 303 305 308 310 310 311 310 311 311 311 309 308 311 313 316 319 320 319 318 317 315 315 314 314 313 312 310 309 307 305 303 301 299 297 294 291 288 284 281 278 276 273 270 267 265 263
299 309 309 311 313 311 315 317 316 321 324 321 318 319 316 316 318 318 318 318 318 319 318 318 317 316 315 314 312 311 309 308 307 305 303 301 298 295 292 289 285 282 279 277 274 272 269 266 263
297 308 320 321 317 306 309 314 317 328 331 331 327 327 326 327 325 319 317 318 318 319 319 319 319 318 316 315 313 313 312 311 309 307 304 302 300 297 295 291 287 284 281 279 276 273 269 266 263
294 286 283 284 296 303 307 307 313 320 323 328 330 330 328 324 321 318 317 318 319 320 321 321 320 319 318 317 316 315 313 311 309 307 305 303 301 299 296 293 290 287 284 280 277 274 270 266 263
285 283 283 284 293 308 311 307 308 312 318 324 328 329 327 323 320 319 320 320 321 322 322 322 322 322 321 319 318 316 314 313 311 310 308 305 303 301 298 295 292 289 285 282 278 274 270 266 264
281 288 288 279 285 310 309 307 307 306 314 320 324 326 323 321 320 320 320 321 322 323 324 324 324 324 322 321 320 318 317 316 315 313 311 309 306 303 300 298 294 290 287 283 279 274 270 267 263
276 284 283 280 267 272 292 294 304 306 310 313 316 319 319 318 319 320 322 323 324 324 325 326 326 325 324 324 323 322 321 320 318 316 314 311 308 305 303 300 296 292 288 284 279 274 270 267 263
272 275 274 274 283 283 286 291 300 303 305 307 311 315 316 318 319 322 324 325 325 326 328 329 328 328 328 328 327 326 324 323 321 318 316 314 311 308 305 303 299 295 290 285 280 275 270 266 263